User: anonymous   Login
Location: Bangkok
(13.7500°N, 100.5170°E)
Time: 10:38:01
(UTC+07:00)
Language:

Cosmos 1802 Rocket - Orbit

View from above orbital plane
View from above orbital plane
View from above satellite
View from above satellite

Ground track
Ground track

The orbit data is extracted from the following two-line orbital elements,

1 17160U 86093B   15145.84129022  .00000054  00000-0  40508-4 0  9995
2 17160 082.9283 263.1453 0040364 088.4183 022.5714 13.74559439429378
Epoch (UTC): 25 May 2015 20:11:27
Eccentricity: 0.0040364
inclination: 82.9283°
perigee height: 953 km
apogee height: 1013 km
right ascension of ascending node: 263.1453°
argument of perigee: 88.4183°
revolutions per day: 13.74559439
mean anomaly at epoch: 22.5714°
orbit number at epoch: 42937

The dashed part of the orbit path shows where the satellite is in the earth's shadow,  

DLR